Tracking 29892 objects as of 21-Nov-2024
HD Live streaming from Space Station
objects crossing your sky now

CZ-6A DEB

Track CZ-6A DEB now!
10-day predictions


NORAD ID: 55208
Int'l Code: 2022-151VZ
Perigee: 648.7 km
Apogee: 774.4 km
Inclination: 98.7 °
Period: 98.9 minutes
Semi major axis: 7082 km
RCS: Unknown
Launch date: November 11, 2022
Source: People's Republic of China (PRC)
Launch site: Taiyaun Space Center, China (TSC)

Note: This is SATELLITE DEBRIS
Your satellite tracking list
Your tracking list is empty




NASA's NSSDC Master Catalog

Two Line Element Set (TLE):
1 55208U 22151VZ  24325.04111706  .00022243  00000-0  47341-2 0  9991
2 55208  98.6598 353.0127 0088730 258.3915 100.7311 14.56537528100984
Source of the keplerian elements: AFSPC